Theta_e
326 325 323 322 320 319 318 317 315 313 312 312 312 312 313 314 314 314 313 313 315 316 316 316 317 317 301 290 292 303 312 309 306 303 299 296 293 291 287 289 289 288 289 291 291 291 290
326 326 324 323 322 320 320 318 316 314 313 313 313 313 313 314 314 314 313 313 314 315 316 316 316 315 296 287 301 302 302 304 302 300 298 297 294 294 291 289 287 289 289 289 290 290 290
326 326 325 324 322 321 320 319 317 316 314 314 313 313 313 314 314 315 314 312 314 315 315 315 315 302 294 292 299 300 302 301 302 300 297 298 297 292 291 288 291 289 285 287 287 288 287
326 325 325 324 323 321 320 320 318 317 316 315 315 314 313 313 314 315 314 313 313 314 314 314 314 296 289 300 299 300 301 300 302 301 299 299 298 294 291 291 289 285 284 280 284 287 288
326 325 324 324 323 322 321 320 319 318 317 315 314 314 313 313 314 315 314 314 314 313 314 314 297 291 288 304 296 298 299 297 299 299 299 301 296 291 290 285 282 282 278 279 282 287 285
325 325 324 324 324 322 321 320 320 319 317 316 314 314 313 314 314 315 314 312 312 307 304 299 297 289 292 291 295 297 298 299 295 295 295 294 289 285 284 283 278 279 277 278 278 282 285
325 324 324 323 323 322 321 320 320 319 318 316 315 314 314 314 314 314 304 297 294 291 293 288 288 289 292 295 297 296 297 296 294 291 285 289 285 280 282 283 282 281 279 278 279 284 283
319 324 324 323 323 322 321 320 320 320 319 317 316 315 314 314 314 313 300 293 291 293 286 292 293 292 294 294 291 292 297 291 289 283 286 284 281 284 286 285 283 282 279 278 280 283 282
316 317 323 323 322 322 321 321 320 320 319 317 316 315 314 314 314 301 296 295 301 298 287 289 292 291 292 295 289 289 294 291 287 285 284 282 283 287 286 282 282 281 280 278 278 282 281
314 315 316 320 321 321 321 320 320 319 318 317 316 315 314 313 304 298 297 301 301 298 281 285 287 291 293 293 286 294 294 291 287 285 283 283 286 284 283 282 281 279 282 282 281 279 275
311 312 314 314 315 317 319 319 319 318 317 317 316 315 314 312 298 297 300 303 301 297 271 286 286 295 292 288 289 289 294 290 285 285 283 282 283 283 282 283 283 281 284 282 282 280 277
308 310 311 313 314 313 314 318 318 318 317 316 316 315 314 305 300 300 303 301 298 281 271 281 287 288 288 288 289 290 289 292 290 285 284 283 286 284 283 285 285 286 283 281 280 278 269
306 307 308 309 311 312 313 313 315 318 317 316 315 314 310 304 297 302 302 297 281 273 283 281 282 288 286 286 286 287 285 284 282 278 277 282 282 284 285 283 284 282 278 271 273 270 272
306 306 307 307 308 311 311 313 313 313 315 316 315 314 308 303 303 303 298 288 272 276 281 285 286 287 284 287 285 285 283 281 283 282 276 279 278 281 284 283 281 280 278 274 269 270 271
305 307 305 306 306 307 310 311 312 312 312 315 315 310 303 302 303 302 293 278 278 280 285 284 285 283 283 286 285 284 282 280 283 283 283 278 278 283 284 284 282 281 278 280 271 266 270
303 304 306 306 306 306 307 310 311 312 312 312 310 304 302 304 304 299 287 282 280 287 287 286 284 284 281 283 283 282 281 284 284 285 284 282 276 280 282 284 283 281 283 276 274 270 269
301 302 303 305 306 306 306 308 310 311 312 312 306 299 301 305 303 293 282 282 284 288 289 285 284 283 284 283 284 282 283 284 285 283 284 281 281 277 280 278 279 279 277 278 278 276 270
301 301 302 304 305 306 305 306 308 310 310 309 302 290 300 305 288 286 285 284 290 288 291 288 288 287 285 285 283 283 283 284 286 284 282 283 281 274 276 279 281 280 278 279 276 272 270
300 302 301 301 304 305 305 305 307 308 310 305 295 291 299 298 284 284 283 286 289 289 289 288 288 290 288 285 282 283 285 285 285 283 282 283 278 273 277 279 279 279 281 280 278 277 271
302 301 301 300 302 303 305 305 305 307 308 304 291 284 286 290 291 288 283 283 285 291 290 290 289 291 288 284 285 282 283 285 285 284 291 288 276 281 281 282 279 274 277 280 278 271 273
303 302 301 301 301 302 304 305 305 305 306 302 290 285 285 283 284 287 287 285 285 284 289 290 287 289 288 282 281 281 283 283 286 288 283 283 279 272 273 279 279 279 276 278 275 278 277
301 301 301 300 300 301 302 303 304 305 306 297 285 284 285 285 289 287 287 285 285 287 286 285 286 289 290 287 288 284 284 284 284 284 282 282 277 275 274 273 276 276 278 278 277 275 276
299 300 300 300 300 300 301 302 303 304 304 292 292 295 289 287 286 286 286 286 286 289 289 291 289 289 289 292 291 290 288 287 287 283 280 282 278 277 275 272 274 277 282 279 278 279 281
297 298 299 299 299 299 300 300 300 302 303 293 293 296 287 284 285 286 288 288 287 288 288 289 291 290 289 293 293 292 289 285 284 283 283 281 281 278 272 273 276 285 283 283 283 284 282
296 297 298 298 299 299 299 300 300 299 301 298 295 293 288 285 287 287 287 289 290 290 290 288 289 291 294 294 288 287 286 286 281 281 281 283 285 279 276 271 281 284 282 282 283 287 286
295 296 296 297 298 298 298 299 300 299 299 298 296 297 293 286 285 291 288 289 287 286 286 285 290 291 292 290 287 284 282 280 282 278 282 284 287 282 277 279 275 284 284 284 285 282 288
295 296 295 296 297 298 298 298 298 300 298 296 296 297 293 285 289 292 288 288 292 288 286 285 287 287 289 285 277 284 285 284 280 279 275 275 278 282 280 284 283 287 284 284 281 285 285
295 296 296 297 296 297 297 297 298 299 298 295 295 298 293 287 289 294 296 293 291 290 286 286 288 286 285 286 286 283 279 283 280 280 278 279 281 283 284 284 283 284 283 286 289 285 285
295 295 296 296 297 296 297 297 297 298 299 297 291 298 298 290 290 296 296 297 298 297 293 290 290 288 291 287 284 284 283 278 280 281 278 282 287 285 288 287 289 286 289 288 288 287 283
Wind_Speed
12 13 13 12 11 10 9 8 7 8 5 5 7 7 9 8 9 9 9 9 9 8 9 9 7 7 2 1 3 4 11 10 2 1 4 2 2 4 4 3 1 3 1 1 1 0 3
13 13 14 12 12 10 10 10 8 7 6 5 6 6 8 10 10 10 10 10 9 8 7 8 7 6 1 2 2 6 7 3 4 2 2 4 3 3 5 2 2 2 1 1 1 3 3
14 14 14 14 13 12 11 11 9 9 7 7 6 7 6 10 10 11 11 11 10 8 7 6 5 2 1 4 2 6 7 2 3 0 4 2 4 4 3 3 3 3 1 3 2 1 3
15 14 14 15 14 13 12 12 11 10 8 7 7 7 7 8 11 12 12 12 9 9 5 4 1 1 4 1 2 4 7 2 5 3 6 3 7 8 4 2 5 4 4 4 0 2 3
14 15 15 16 16 14 14 13 12 10 9 8 7 7 7 8 10 12 13 14 7 5 4 3 2 2 5 3 2 2 4 2 4 2 6 3 7 4 4 3 4 7 1 1 6 2 2
16 17 16 16 17 16 15 14 13 11 10 9 7 7 7 7 9 11 14 6 5 2 2 1 2 3 1 2 1 2 3 3 2 3 5 7 6 4 4 3 4 2 1 3 5 2 2
17 18 18 18 18 17 16 15 14 13 11 10 9 7 7 6 8 10 8 3 5 3 2 4 1 2 1 1 0 5 3 1 1 7 3 4 5 1 2 0 3 4 2 3 4 3 5
21 18 20 20 19 17 16 15 15 15 13 11 9 8 6 6 7 8 2 1 2 3 5 2 1 1 1 2 2 1 2 3 2 3 1 5 1 2 2 1 2 2 0 4 5 2 3
20 25 20 20 18 17 16 16 16 15 14 12 10 8 6 5 7 2 2 4 3 1 1 3 4 3 4 4 2 4 2 2 3 4 0 4 2 2 2 2 1 0 2 1 2 8 1
19 19 20 9 17 17 17 17 17 16 15 13 12 9 7 3 2 2 3 1 3 2 6 5 4 4 2 5 1 0 2 4 4 6 3 4 1 3 2 2 1 3 1 2 2 6 4
19 18 18 17 17 10 17 18 19 19 16 14 13 11 8 6 1 2 2 1 1 4 3 1 2 1 1 5 6 2 2 2 6 6 5 3 4 3 2 2 1 1 1 1 2 2 3
17 16 16 17 14 13 17 13 16 17 17 17 15 13 11 3 1 4 2 2 2 9 10 2 3 5 5 1 3 3 1 7 4 6 5 2 1 2 2 2 3 4 2 3 4 3 4
18 16 16 16 16 15 13 14 14 15 17 19 19 17 11 5 3 3 3 3 5 6 3 5 5 5 2 5 3 4 5 4 7 6 2 3 1 1 1 3 1 2 2 5 8 7 6
16 17 17 16 15 15 12 13 10 9 10 19 21 20 8 4 4 4 3 5 5 5 7 3 4 4 6 6 3 5 5 4 4 5 4 7 5 1 2 1 2 1 2 7 5 1 6
19 19 16 15 16 16 15 12 10 10 12 11 20 8 7 6 8 3 4 4 11 9 7 10 4 5 4 3 4 4 7 6 9 12 8 6 1 2 3 2 2 2 1 3 8 2 4
23 22 19 16 15 15 15 15 12 10 9 12 7 6 6 13 11 4 3 13 7 5 6 4 9 5 9 8 6 6 9 6 6 6 2 5 5 2 1 0 3 1 4 4 4 1 4
20 23 23 19 16 15 15 14 14 11 10 12 3 6 6 15 6 3 11 11 8 6 5 7 7 6 5 9 7 7 6 2 4 5 3 5 5 4 2 4 7 1 1 4 3 3 6
24 22 21 22 18 17 16 16 13 14 9 8 4 4 7 15 8 4 15 8 6 6 3 5 4 3 8 10 8 7 10 3 7 9 10 7 6 4 5 2 2 1 3 4 5 5 1
27 24 22 22 20 19 17 15 14 12 5 3 3 3 1 4 12 13 3 4 4 5 7 7 7 5 3 7 4 6 5 3 4 7 9 9 1 4 6 3 4 4 5 4 5 3 6
27 25 25 22 21 19 18 16 14 10 10 3 1 3 2 2 3 20 11 7 12 5 5 6 5 4 4 2 3 6 3 1 2 1 2 6 4 7 9 7 7 4 5 5 6 4 5
27 23 24 20 20 18 17 17 15 13 9 1 2 3 2 8 12 10 16 11 13 12 5 7 4 7 8 4 3 4 3 2 3 2 2 3 6 4 3 3 3 5 6 9 9 7 8
25 21 21 19 19 20 17 15 17 16 12 3 4 3 2 3 10 16 12 21 26 22 12 8 8 13 7 7 8 9 8 6 7 3 7 2 3 3 2 4 5 2 4 8 7 4 10
23 21 19 19 18 19 19 14 14 16 13 3 3 4 3 3 6 12 20 24 21 15 14 15 14 13 11 8 5 6 7 6 4 11 8 8 7 4 5 2 3 4 11 14 6 6 10
21 21 22 22 19 20 20 18 14 17 17 4 4 3 4 6 7 15 16 23 19 24 19 10 12 11 6 20 16 11 11 12 9 6 2 8 6 3 4 2 4 8 4 6 14 9 15
25 23 22 23 24 21 20 18 19 17 25 7 4 5 3 4 8 14 20 17 24 11 12 6 4 1 19 7 6 6 3 5 4 3 1 2 4 4 7 5 6 3 6 9 9 12 16
28 27 25 24 24 25 21 19 20 18 23 12 7 6 5 2 6 16 12 22 14 14 5 3 2 3 3 5 4 8 9 7 9 1 4 3 3 4 4 5 9 7 2 5 5 8 6
30 29 29 26 26 25 24 22 21 20 18 15 4 13 7 6 5 6 6 11 7 8 6 4 6 2 2 5 5 11 14 5 10 14 8 4 1 8 6 6 7 5 6 6 6 9 4
30 32 31 28 27 27 24 23 23 21 19 14 4 12 11 4 8 7 3 3 6 13 9 7 5 2 1 8 11 8 5 9 5 5 10 11 11 7 3 7 17 7 5 11 7 2 6
28 30 31 31 29 28 27 25 23 23 21 19 5 8 10 4 3 5 16 16 7 17 13 11 5 11 8 7 4 5 4 3 7 8 1 9 9 10 14 8 2 14 6 7 5 5 4
Wind_Direction
224 220 222 224 228 230 236 241 251 270 272 292 308 323 324 332 335 339 343 340 335 331 321 318 326 325 334 347 259 331 339 339 36 129 58 73 95 116 130 116 82 80 178 36 37 110 273
223 225 218 219 222 228 231 241 241 249 267 274 285 310 322 321 330 334 338 340 331 324 315 312 322 329 352 285 340 335 339 354 38 60 38 50 139 119 105 86 95 113 108 115 281 289 272
226 222 223 218 219 219 221 233 236 245 245 261 273 288 313 316 325 328 334 332 324 313 305 308 318 28 13 246 346 329 5 343 3 312 106 68 119 74 113 100 159 124 12 322 224 300 315
225 226 225 225 222 219 218 222 233 241 241 241 256 276 300 311 319 326 328 325 317 300 294 286 337 66 236 333 285 37 339 335 4 16 97 113 95 101 66 132 30 54 57 18 39 22 353
224 231 227 224 225 224 220 219 222 226 235 236 244 269 286 309 320 323 324 321 304 287 283 293 112 113 284 327 26 349 12 5 307 48 41 69 67 83 41 90 28 15 247 240 326 45 295
226 229 231 227 225 223 220 219 218 221 219 231 241 255 279 298 316 322 322 301 300 3 26 79 55 44 322 215 299 27 316 24 30 94 37 35 51 76 36 75 220 214 334 274 238 325 294
238 232 230 226 223 221 220 216 216 215 214 217 230 247 263 296 311 333 354 7 31 351 25 209 198 144 184 272 222 47 330 60 336 46 96 1 71 221 188 156 123 130 160 262 273 49 323
13 245 230 228 217 218 219 217 213 218 217 209 216 232 255 281 307 332 38 181 176 171 300 191 221 239 219 166 118 61 303 149 108 107 68 26 174 160 129 65 108 99 147 290 281 42 2
7 7 250 222 216 217 219 217 216 216 214 205 209 208 233 265 313 13 210 236 129 139 213 229 198 194 196 139 164 174 298 139 108 103 163 154 164 155 142 50 110 147 196 188 221 326 194
356 6 360 303 216 218 221 219 217 213 208 201 199 201 205 226 340 262 250 348 120 131 56 242 225 244 130 127 179 279 315 126 43 138 119 94 209 171 118 110 117 253 163 112 44 30 290
350 355 1 359 9 346 230 220 217 207 203 195 192 188 186 166 160 230 290 80 228 58 22 225 170 202 197 142 127 342 325 35 136 124 120 211 166 167 135 129 91 284 343 65 80 60 348
339 344 347 354 346 358 7 286 228 218 196 191 185 175 149 118 103 244 102 85 15 49 247 288 127 179 130 113 110 140 71 48 136 100 47 91 329 16 106 112 98 142 118 42 56 65 28
330 333 333 338 343 348 350 345 353 231 213 196 180 168 157 144 205 138 125 64 50 169 302 214 192 173 184 148 141 161 164 155 145 98 219 2 48 9 46 103 58 129 56 344 358 12 219
322 323 325 326 325 336 328 325 335 346 305 204 182 162 173 160 136 136 98 63 192 234 200 129 124 107 187 161 177 153 133 191 243 99 108 146 300 161 10 1 167 160 158 147 210 264 274
315 316 310 311 316 316 323 309 319 333 324 271 179 162 152 185 132 102 94 194 207 200 167 141 92 123 235 225 148 146 192 204 200 175 157 132 315 318 49 20 75 216 64 140 102 51 39
307 305 309 300 301 304 308 324 310 304 307 327 191 170 183 150 130 90 95 234 216 188 138 155 174 164 176 181 164 192 175 198 190 183 132 192 88 311 357 114 32 54 149 75 6 59 300
292 294 301 305 292 295 302 304 324 298 313 320 222 183 142 142 96 110 213 225 212 213 153 161 190 146 178 174 177 198 201 246 138 137 102 135 107 287 22 209 175 105 29 51 109 125 169
293 285 281 290 302 286 288 297 299 315 312 302 146 221 180 153 143 182 220 192 190 181 147 227 155 143 175 168 173 205 208 242 155 155 162 190 121 134 211 256 324 313 210 167 125 244 64
286 284 277 274 283 292 274 276 288 304 313 311 137 92 304 285 181 200 228 232 241 159 179 184 205 204 178 166 156 188 189 348 146 159 162 181 299 73 350 6 358 224 197 149 103 78 205
280 267 271 267 273 285 284 262 265 270 295 8 79 146 263 259 255 201 184 216 213 212 189 169 169 133 126 111 24 170 139 62 169 154 80 102 100 156 183 183 129 174 198 174 138 126 193
291 256 261 266 271 271 280 278 256 251 258 86 108 233 207 199 220 209 193 173 200 205 223 169 201 212 164 133 77 145 98 106 41 164 59 142 175 107 313 26 131 161 165 176 189 194 177
310 260 257 256 269 273 274 287 273 244 231 199 171 195 179 280 221 205 200 212 207 199 169 215 201 188 185 163 184 183 147 197 183 176 166 182 170 120 2 4 42 274 196 194 228 251 273
313 299 272 263 261 266 258 265 296 257 215 155 185 206 168 199 217 199 211 212 213 183 220 218 191 174 189 204 102 82 91 83 148 153 172 147 139 111 241 17 83 335 224 191 194 212 204
302 297 288 271 260 264 262 247 257 292 235 151 201 168 184 236 200 218 232 213 214 203 205 198 183 176 150 117 106 75 70 67 54 27 106 148 122 92 152 34 267 229 139 172 202 236 213
291 287 280 274 269 258 261 250 238 248 282 217 169 180 226 235 206 222 224 229 222 227 210 161 216 171 161 105 84 93 30 31 317 326 48 72 145 120 143 207 312 273 198 170 170 271 202
280 282 279 268 265 262 256 256 243 229 263 274 186 183 212 248 223 234 210 212 210 200 181 199 278 203 101 114 118 190 196 159 203 27 331 106 80 121 131 194 211 236 155 155 147 289 212
275 275 272 267 262 257 256 252 252 235 232 266 213 186 203 224 228 193 228 203 170 170 193 133 154 225 346 146 145 188 214 179 179 170 171 125 53 196 185 226 270 227 150 175 100 236 148
270 272 266 261 258 256 253 250 252 240 238 252 227 179 197 219 231 197 200 223 154 187 183 164 120 245 107 187 190 189 168 199 132 153 171 158 160 191 169 219 245 139 92 176 208 111 154
281 268 263 253 251 249 249 248 248 239 235 238 229 168 190 223 279 227 230 227 273 207 182 184 168 158 182 190 184 136 162 150 141 209 343 203 196 184 190 209 166 185 199 188 173 140 190